Weather History for Jakarta Soekarno-Hatta, Indonesia

Change the Weather History Date:

Friday, December 27, 2013

  Actual Average Record
Temperature  
Mean Temperature 82 °F -  
Max Temperature 88 °F - - ()
Min Temperature 75 °F - - ()
Cooling Degree Days 16    
Growing Degree Days 32 (Base 50)    
Moisture  
Dew Point 75 °F    
Average Humidity 79    
Maximum Humidity 94    
Minimum Humidity 61    
Precipitation  
Precipitation 0.00 in - - ()
Sea Level Pressure  
Sea Level Pressure 29.81 in    
Wind  
Wind Speed 6 mph ()    
Max Wind Speed 13 mph    
Max Gust Speed -    
Visibility 4.6 miles    
Events      
T = Trace of Precipitation, MM = Missing Value Source: Averaged Metar Reports

Daily Weather History Graph

Daily Weather History Graph

Search for Another Location

Airport:

Trip Planner

Search our weather history database for the weather conditions in past years. The results will help you decide how hot, cold, wet, or windy it might be!

Date:

Astronomy

Dec. 27, 2013 Rise Set
Actual Time 5:39 AM WIT 6:08 PM WIT
Civil Twilight 5:17 AM WIT 6:31 PM WIT
Nautical Twilight 4:50 AM WIT 6:58 PM WIT
Astronomical Twilight 4:23 AM WIT 7:25 PM WIT
Moon 12:36 AM WIT (12/27) 1:08 PM WIT (12/27)
Length of Visible Light 13h 14m
Length of Day
12h 28m
Waning Crescent, 33% of the Moon is Illuminated
Dec 27
Waning Crescent
Jan 1
New
Jan 8
First Quarter
Jan 16
Full
Jan 24
Last Quarter

Hourly Weather History & Observations

Time (WIT) Temp. Heat Index Dew Point Humidity Pressure Visibility Wind Dir Wind Speed Gust Speed Precip Events Conditions
12:00 AM 78.8 °F - 75.2 °F 89% 29.86 in 3.7 mi WSW 6.9 mph - N/A   Partly Cloudy
12:30 AM 78.8 °F - 75.2 °F 89% 29.83 in 3.7 mi West 4.6 mph - N/A   Scattered Clouds
1:00 AM 77 °F - 73 °F 85% 29.83 in 3 mi SW 3.5 mph - -   Haze
1:00 AM 78.8 °F - 73.4 °F 83% 29.83 in 2.8 mi Variable 3.5 mph - N/A   Scattered Clouds
1:30 AM 78.8 °F - 75.2 °F 89% 29.83 in 3.7 mi West 6.9 mph - N/A   Scattered Clouds
2:00 AM 78.8 °F - 75.2 °F 89% 29.80 in 3.7 mi West 4.6 mph - N/A   Scattered Clouds
2:30 AM 78.8 °F - 75.2 °F 89% 29.83 in 3.7 mi WSW 3.5 mph - N/A   Scattered Clouds
3:00 AM 78.8 °F - 75.2 °F 89% 29.80 in 3.7 mi WSW 3.5 mph - N/A   Scattered Clouds
3:30 AM 77.0 °F - 75.2 °F 94% 29.80 in 3.7 mi West 5.8 mph - N/A   Scattered Clouds
4:00 AM 76 °F - 74 °F 91% 29.81 in 4 mi WSW 5.8 mph - -   Haze
4:00 AM 78.8 °F - 73.4 °F 83% 29.80 in 3.7 mi WSW 5.8 mph - N/A   Scattered Clouds
4:30 AM 77.0 °F - 75.2 °F 94% 29.80 in 3.7 mi SW 3.5 mph - N/A   Scattered Clouds
5:00 AM 77.0 °F - 73.4 °F 89% 29.80 in 3.7 mi Variable 4.6 mph - N/A   Partly Cloudy
5:30 AM 77.0 °F - 73.4 °F 89% 29.80 in 3.7 mi South 3.5 mph - N/A   Scattered Clouds
6:00 AM 77.0 °F - 73.4 °F 89% 29.83 in 4.3 mi West 4.6 mph - N/A   Scattered Clouds
6:30 AM 77.0 °F - 73.4 °F 89% 29.83 in 3.7 mi WSW 5.8 mph - N/A   Scattered Clouds
7:00 AM 78 °F - 75 °F 88% 29.85 in 4 mi West 5.8 mph - -   Haze
7:00 AM 78.8 °F - 73.4 °F 83% 29.83 in 3.7 mi West 5.8 mph - N/A   Scattered Clouds
7:30 AM 80.6 °F 86.2 °F 75.2 °F 84% 29.86 in 3.7 mi West 4.6 mph - N/A   Scattered Clouds
8:00 AM 80.6 °F 86.2 °F 75.2 °F 84% 29.86 in 4.3 mi West 8.1 mph - N/A   Partly Cloudy
8:30 AM 82.4 °F 88.2 °F 73.4 °F 74% 29.86 in 4.3 mi WNW 5.8 mph - N/A   Partly Cloudy
9:00 AM 82.4 °F 89.5 °F 75.2 °F 79% 29.86 in 5.0 mi WNW 5.8 mph - N/A   Partly Cloudy
9:30 AM 84.2 °F 92.3 °F 75.2 °F 74% 29.86 in 5.0 mi WNW 6.9 mph - N/A   Partly Cloudy
10:00 AM 84 °F - 74 °F 65% 29.86 in 5 mi West 10.4 mph - -   Haze
10:00 AM 84.2 °F 92.3 °F 75.2 °F 74% 29.86 in 5.0 mi NW 6.9 mph - N/A   Partly Cloudy
10:30 AM 84.2 °F 92.3 °F 75.2 °F 74% 29.83 in 6.2 mi NW 11.5 mph - N/A   Partly Cloudy
11:00 AM 86.0 °F 95.1 °F 75.2 °F 70% 29.83 in 5.6 mi NW 6.9 mph - N/A   Scattered Clouds
11:30 AM 86.0 °F 95.1 °F 75.2 °F 70% 29.83 in 5.6 mi NW 10.4 mph - N/A   Scattered Clouds
12:00 PM 86.0 °F 95.1 °F 75.2 °F 70% 29.80 in 5.6 mi NNW 8.1 mph - N/A   Scattered Clouds
12:30 PM 87.8 °F 97.6 °F 75.2 °F 66% 29.80 in 6.2 mi NW 12.7 mph - N/A   Partly Cloudy
1:00 PM 87 °F - 76 °F 61% 29.78 in 6 mi NW 11.5 mph - -   Scattered Clouds
1:00 PM 89.6 °F 102.2 °F 77.0 °F 66% 29.77 in 6.2 mi NW 11.5 mph - N/A   Partly Cloudy
1:30 PM 86.0 °F 95.1 °F 75.2 °F 70% 29.77 in 6.2 mi NW 11.5 mph - N/A   Partly Cloudy
2:00 PM 87.8 °F 97.6 °F 75.2 °F 66% 29.74 in 6.2 mi NW 11.5 mph - N/A   Partly Cloudy
2:30 PM 89.6 °F 99.8 °F 75.2 °F 62% 29.74 in 6.2 mi NNW 9.2 mph - N/A   Partly Cloudy
3:00 PM 87.8 °F 97.6 °F 75.2 °F 66% 29.71 in 6.2 mi NW 9.2 mph - N/A   Partly Cloudy
3:30 PM 86.0 °F 95.1 °F 75.2 °F 70% 29.74 in 6.2 mi NW 6.9 mph - N/A   Partly Cloudy
4:00 PM 85 °F - 74 °F 64% 29.75 in 6 mi NNW 10.4 mph - -   Scattered Clouds
4:00 PM 86.0 °F 95.1 °F 75.2 °F 70% 29.74 in 6.2 mi WNW 6.9 mph - N/A   Partly Cloudy
4:30 PM 86.0 °F 95.1 °F 75.2 °F 70% 29.74 in 6.2 mi NW 8.1 mph - N/A   Partly Cloudy
5:00 PM 86.0 °F 95.1 °F 75.2 °F 70% 29.74 in 5.6 mi NW 6.9 mph - N/A   Partly Cloudy
5:30 PM 84.2 °F 92.3 °F 75.2 °F 74% 29.77 in 5.6 mi NW 5.8 mph - N/A   Partly Cloudy
6:00 PM 82.4 °F 88.2 °F 73.4 °F 74% 29.77 in 5.0 mi NW 4.6 mph - N/A   Partly Cloudy
6:30 PM 82.4 °F 89.5 °F 75.2 °F 79% 29.77 in 3.1 mi NW 5.8 mph - N/A   Haze
7:00 PM 81 °F - 74 °F 74% 29.80 in 4 mi WNW 5.8 mph - -   Haze
7:00 PM 80.6 °F 86.2 °F 75.2 °F 84% 29.80 in 3.7 mi NW 3.5 mph - N/A   Partly Cloudy
7:30 PM 80.6 °F 86.2 °F 75.2 °F 84% 29.80 in 3.7 mi WNW 3.5 mph - N/A   Partly Cloudy
8:00 PM 80.6 °F 85.4 °F 73.4 °F 79% 29.83 in 4.3 mi West 5.8 mph - N/A   Partly Cloudy
8:30 PM 80.6 °F 86.2 °F 75.2 °F 84% 29.83 in 4.3 mi NW 2.3 mph - N/A   Partly Cloudy
9:00 PM 80.6 °F 85.4 °F 73.4 °F 79% 29.83 in 4.3 mi Variable 2.3 mph - N/A   Partly Cloudy
9:30 PM 80.6 °F 85.4 °F 73.4 °F 79% 29.86 in 4.3 mi West 2.3 mph - N/A   Partly Cloudy
10:00 PM 78 °F - 75 °F 88% 29.86 in 4 mi WSW 3.5 mph - -   Haze
10:00 PM 78.8 °F - 73.4 °F 83% 29.83 in 4.3 mi WSW 3.5 mph - N/A   Partly Cloudy
10:30 PM 78.8 °F - 73.4 °F 83% 29.83 in 4.3 mi West 2.3 mph - N/A   Partly Cloudy
11:00 PM 78.8 °F - 73.4 °F 83% 29.83 in 5.0 mi West 5.8 mph - N/A   Partly Cloudy
11:30 PM 78.8 °F - 73.4 °F 83% 29.80 in 5.0 mi West 6.9 mph - N/A   Partly Cloudy